Zurück zum Katalog

THORAD AGENA D DEB

AktivSSO
NORAD 4742·DEBRIS·🇺🇸 United States

Gestartet Apr 8, 1970 von Vandenberg Space Force Base

Loading…

Nächste Überflüge (nächste 24 Stunden)

TLE

AktuellSource: Space-Track

Epoche: Sep 14, 2026, 16:41 UTC

1 04742U 70025CR  26257.69555058  .00000072  00000-0  17356-3 0  9990
2 04742 100.0047 328.0772 0018584 268.9972 245.0914 13.54418641782132

Verfolge THORAD AGENA D DEB in Echtzeit mit AllMySat

Download on the App Store